Buckland, AK

12:57 PM AKST on February 20, 2018 (GMT -0900)
Buckland

Weather History for PABL - September, 2013

Change the Weather History Date:

Sunday, September 1, 2013

  Actual Average (PASK) Record (PASK)
Temperature  
Mean Temperature 40 °F -  
Max Temperature 53 °F 52 °F 62 °F (2008)
Min Temperature 26 °F 41 °F 35 °F (2005)
Degree Days  
Heating Degree Days 26    
Moisture  
Dew Point 28 °F    
Average Humidity 62    
Maximum Humidity 93    
Minimum Humidity 41    
Precipitation  
Precipitation 0.00 in - - ()
Sea Level Pressure  
Sea Level Pressure 29.79 in    
Wind  
Wind Speed 5 mph (East)    
Max Wind Speed 16 mph    
Max Gust Speed 26 mph    
Visibility 10 miles    
Events      
Averages and records for this station are not official NWS values.
T = Trace of Precipitation, MM = Missing Value Source: NWS Daily Summary

Daily Weather History Graph

Daily Weather History Graph

Search for Another Location

Airport or City:

Trip Planner

Search our weather history database for the weather conditions in past years. The results will help you decide how hot, cold, wet, or windy it might be!

Date:

Astronomy

Sep. 01, 2013 Rise Set
Actual Time 7:21 AM AKDT 10:05 PM AKDT
Civil Twilight 6:23 AM AKDT 11:02 PM AKDT
Nautical Twilight 4:57 AM AKDT 12:25 AM AKDT
Astronomical Twilight 3:17 AM AKDT 2:11 AM AKDT
Moon 2:51 AM AKDT (9/1) 8:35 PM AKDT (9/1)
Length of Visible Light 16h 39m
Length of Day
14h 43m
Waning Crescent, 13% of the Moon is Illuminated
Sep 1
Waning Crescent
Sep 5
New
Sep 12
First Quarter
Sep 19
Full
Sep 26
Last Quarter

Hourly Weather History & Observations

Time (AKDT) Temp. Windchill Dew Point Humidity Pressure Visibility Wind Dir Wind Speed Gust Speed Precip Events Conditions
12:16 AM 33.8 °F 29.6 °F 21.2 °F 60% 29.91 in 10.0 mi SSW 4.6 mph - N/A   Clear
12:36 AM 37.4 °F 32.8 °F 21.2 °F 52% 29.91 in 10.0 mi SSW 5.8 mph - N/A   Clear
12:56 AM 35.6 °F 32.8 °F 24.8 °F 65% 29.91 in 10.0 mi South 3.5 mph - N/A   Clear
1:16 AM 35.6 °F 32.8 °F 23.0 °F 60% 29.91 in 10.0 mi SE 3.5 mph - N/A   Clear
1:36 AM 35.6 °F 32.8 °F 28.4 °F 75% 29.91 in 10.0 mi South 3.5 mph - N/A   Clear
1:56 AM 33.8 °F - 28.4 °F 81% 29.91 in 10.0 mi Calm Calm - N/A   Clear
2:16 AM 33.8 °F - 26.6 °F 75% 29.91 in 10.0 mi Calm Calm - N/A   Clear
2:36 AM 32.0 °F - 26.6 °F 80% 29.91 in 10.0 mi Calm Calm - N/A   Clear
2:56 AM 30.2 °F - 26.6 °F 86% 29.91 in 10.0 mi Calm Calm - N/A   Clear
3:16 AM 30.2 °F 26.7 °F 26.6 °F 86% 29.91 in 10.0 mi SSE 3.5 mph - N/A   Clear
3:36 AM 30.2 °F - 28.4 °F 93% 29.91 in 10.0 mi Calm Calm - N/A   Clear
3:56 AM 28.4 °F - 26.6 °F 93% 29.90 in 10.0 mi Calm Calm - N/A   Clear
4:16 AM 28.4 °F - 24.8 °F 86% 29.90 in 10.0 mi Calm Calm - N/A   Clear
4:36 AM 28.4 °F - 24.8 °F 86% 29.89 in 10.0 mi Calm Calm - N/A   Clear
4:56 AM 26.6 °F - 24.8 °F 93% 29.89 in 10.0 mi Calm Calm - N/A   Clear
5:16 AM 26.6 °F - 21.2 °F 80% 29.89 in 10.0 mi Calm Calm - N/A   Clear
5:36 AM 26.6 °F - 21.2 °F 80% 29.89 in 10.0 mi Calm Calm - N/A   Clear
5:56 AM 26.6 °F - 23.0 °F 86% 29.89 in 10.0 mi Calm Calm - N/A   Mostly Cloudy
6:16 AM 28.4 °F - 24.8 °F 86% 29.88 in 10.0 mi Calm Calm - N/A   Overcast
6:36 AM 28.4 °F 24.6 °F 24.8 °F 86% 29.88 in 10.0 mi SSW 3.5 mph - N/A   Mostly Cloudy
6:56 AM 26.6 °F 22.6 °F 24.8 °F 93% 29.88 in 10.0 mi SSW 3.5 mph - N/A   Mostly Cloudy
7:16 AM 28.4 °F - 24.8 °F 86% 29.88 in 10.0 mi Calm Calm - N/A   Overcast
7:36 AM 28.4 °F - 24.8 °F 86% 29.87 in 10.0 mi Calm Calm - N/A   Overcast
7:56 AM 28.4 °F - 24.8 °F 86% 29.87 in 10.0 mi Calm Calm - N/A   Overcast
8:16 AM 30.2 °F - 26.6 °F 86% 29.86 in 10.0 mi Calm Calm - N/A   Overcast
8:36 AM 30.2 °F - 26.6 °F 86% 29.86 in 10.0 mi Calm Calm - N/A   Overcast
8:56 AM 30.2 °F - 26.6 °F 86% 29.86 in 10.0 mi Calm Calm - N/A   Mostly Cloudy
9:16 AM 30.2 °F - 26.6 °F 86% 29.85 in 10.0 mi Calm Calm - N/A   Mostly Cloudy
9:36 AM 32.0 °F 28.7 °F 26.6 °F 80% 29.84 in 10.0 mi NW 3.5 mph - N/A   Mostly Cloudy
9:56 AM 33.8 °F 30.8 °F 28.4 °F 81% 29.84 in 10.0 mi NW 3.5 mph - N/A   Scattered Clouds
10:16 AM 35.6 °F 32.8 °F 28.4 °F 75% 29.84 in 10.0 mi NW 3.5 mph - N/A   Clear
10:36 AM 35.6 °F - 28.4 °F 75% 29.83 in 10.0 mi Calm Calm - N/A   Clear
10:56 AM 37.4 °F 34.9 °F 30.2 °F 75% 29.83 in 10.0 mi North 3.5 mph - N/A   Clear
11:16 AM 39.2 °F - 30.2 °F 70% 29.83 in 10.0 mi Calm Calm - N/A   Clear
11:36 AM 46.4 °F 41.5 °F 33.8 °F 62% 29.81 in 10.0 mi ESE 10.4 mph - N/A   Clear
11:56 AM 48.2 °F - 32.0 °F 54% 29.81 in 10.0 mi East 13.8 mph - N/A   Clear
12:16 PM 48.2 °F - 32.0 °F 54% 29.80 in 10.0 mi East 13.8 mph 18.4 mph N/A   Clear
12:36 PM 48.2 °F - 30.2 °F 50% 29.80 in 10.0 mi East 10.4 mph - N/A   Clear
12:56 PM 50.0 °F - 30.2 °F 47% 29.79 in 10.0 mi ENE 12.7 mph - N/A   Clear
1:16 PM 51.8 °F - 30.2 °F 44% 29.78 in 10.0 mi ENE 11.5 mph - N/A   Clear
1:36 PM 51.8 °F - 30.2 °F 44% 29.78 in 10.0 mi East 9.2 mph 17.3 mph N/A   Clear
1:56 PM 51.8 °F - 30.2 °F 44% 29.77 in 10.0 mi East 12.7 mph 19.6 mph N/A   Partly Cloudy
2:16 PM 51.8 °F - 30.2 °F 44% 29.76 in 10.0 mi ESE 15.0 mph 21.9 mph N/A   Clear
2:36 PM 51.8 °F - 30.2 °F 44% 29.76 in 10.0 mi East 16.1 mph - N/A   Clear
2:56 PM 50.0 °F - 28.4 °F 43% 29.75 in 10.0 mi East 16.1 mph 24.2 mph N/A   Partly Cloudy
3:16 PM 51.8 °F - 30.2 °F 44% 29.75 in 10.0 mi East 16.1 mph 25.3 mph N/A   Mostly Cloudy
3:36 PM 53.6 °F - 30.2 °F 41% 29.74 in 10.0 mi East 16.1 mph 26.5 mph N/A   Overcast
3:56 PM 51.8 °F - 28.4 °F 41% 29.73 in 10.0 mi East 16.1 mph 24.2 mph N/A   Overcast
4:16 PM 51.8 °F - 28.4 °F 41% 29.72 in 10.0 mi East 15.0 mph 25.3 mph N/A   Overcast
4:36 PM 51.8 °F - 28.4 °F 41% 29.72 in 10.0 mi East 11.5 mph - N/A   Overcast
4:56 PM 51.8 °F - 28.4 °F 41% 29.72 in 10.0 mi East 15.0 mph 20.7 mph N/A   Overcast
5:16 PM 50.0 °F - 28.4 °F 43% 29.72 in 10.0 mi ESE 9.2 mph 19.6 mph N/A   Overcast
5:36 PM 51.8 °F - 28.4 °F 41% 29.72 in 10.0 mi ESE 12.7 mph - N/A   Overcast
5:56 PM 51.8 °F - 28.4 °F 41% 29.71 in 10.0 mi East 10.4 mph 16.1 mph N/A   Overcast
6:16 PM 51.8 °F - 30.2 °F 44% 29.70 in 10.0 mi East 9.2 mph - N/A   Overcast
6:36 PM 51.8 °F - 28.4 °F 41% 29.70 in 10.0 mi East 11.5 mph - N/A   Overcast
6:56 PM 50.0 °F - 28.4 °F 43% 29.69 in 10.0 mi East 10.4 mph 16.1 mph N/A   Overcast
7:16 PM 50.0 °F - 28.4 °F 43% 29.68 in 10.0 mi East 9.2 mph - N/A   Overcast
7:36 PM 50.0 °F - 28.4 °F 43% 29.68 in 10.0 mi ESE 6.9 mph - N/A   Overcast
7:56 PM 50.0 °F - 28.4 °F 43% 29.67 in 10.0 mi East 5.8 mph - N/A   Overcast
8:16 PM 51.8 °F - 28.4 °F 41% 29.66 in 10.0 mi East 9.2 mph - N/A   Overcast
8:36 PM 50.0 °F - 28.4 °F 43% 29.66 in 10.0 mi East 6.9 mph - N/A   Overcast
8:56 PM 50.0 °F - 30.2 °F 47% 29.66 in 10.0 mi East 8.1 mph - N/A   Overcast
9:16 PM 48.2 °F - 30.2 °F 50% 29.65 in 10.0 mi East 6.9 mph - N/A   Overcast
9:36 PM 48.2 °F - 30.2 °F 50% 29.65 in 10.0 mi East 8.1 mph - N/A   Overcast
9:56 PM 48.2 °F - 30.2 °F 50% 29.64 in 10.0 mi East 10.4 mph - N/A   Overcast
10:16 PM 48.2 °F - 30.2 °F 50% 29.64 in 10.0 mi East 6.9 mph - N/A   Overcast
10:36 PM 48.2 °F - 30.2 °F 50% 29.63 in 10.0 mi NE 4.6 mph - N/A   Overcast
10:56 PM 46.4 °F 43.5 °F 30.2 °F 53% 29.63 in 10.0 mi East 5.8 mph - N/A   Overcast
11:16 PM 48.2 °F - 28.4 °F 46% 29.63 in 10.0 mi East 11.5 mph - N/A   Overcast
11:36 PM 48.2 °F - 28.4 °F 46% 29.62 in 10.0 mi NE 10.4 mph - N/A   Overcast
11:56 PM 46.4 °F 44.3 °F 28.4 °F 50% 29.62 in 10.0 mi ENE 4.6 mph - N/A   Overcast